{"data":{"norad_id":62900,"epoch":"2026-05-25T04:46:54.590016Z","epoch_age_seconds":48002,"freshness":"FRESH","line1":"1 62900U 25025A   26145.19924294  .00003813  00000+0  20996-3 0  9992","line2":"2 62900  45.0021  64.6608 0007932   7.5217 352.5780 15.15760499 71009","mean_motion":15.15760499,"eccentricity":0.0007932,"inclination_deg":45.0021,"raan_deg":64.6608,"arg_perigee_deg":7.5217,"mean_anomaly_deg":352.578,"bstar":0.00020996,"rev_number":7100,"period_min":95.001815982803,"perigee_km":513.20016764464,"apogee_km":524.14126340454,"semimajor_km":6896.8077155246,"source":"CELESTRAK","updated_at":"2026-05-25T13:38:03.353416Z"}}